sat.trackr.live / text

‹ back to catalog

STARLINK-5371

NORAD 55489 · 2023-015AS

PAYLOAD ACTIVE UNKNOWN

§ Identity

Operator
Country
US
Launch date
2023-02-02
Launch site
AFETR
Launch vehicle
Mass (kg)
RCS (m²)

Purposes: comms

External: N2YO · Heavens-Above · Gunter

§ Orbital elements

Epoch: 2026-05-25T01:21:27.476064Z

Period
94.27 min
Inclination
43.0045°
Eccentricity
0.0000875
Mean motion
15.27574145 rev/d
Perigee alt
482.5 km
Apogee alt
483.7 km
Semi-major
6,861.2 km
B*
4.2382e-5
RAAN
268.5384°
Arg perigee
284.8623°
Mean anomaly
75.2132°
Rev number
18,227

§ Raw data

STARLINK-53711 55489U 23015AS  26145.05656801  .00000904  00000+0  42382-4 0  99962 55489  43.0045 268.5384 0000875 284.8623  75.2132 15.27574145182279

JSON: /api/v1/satellites/55489 · /tle

For live sub-satellite position, see the globe view (requires WebGL).

§ Visibility from observer

Set your observer location to see the next 7 days of passes ≥ 10°. The values pass through the URL so the page stays shareable.

No JS? Fill the form by hand. The geolocation button needs JavaScript.